WZZ333 LHBP-LROP

Flight info

Callsign WZZ333
Flight time 1h 6m
Altitude 39000
Route VETIK DCT BUDOP DCT LAMIT DCT TOSVI
Aircraft A20N/M-SDE2E3FGHIRWXY/LB1

Departure

Time 2026-05-07 19:25
Airport Budapest Liszt Ferenc International Airport (LHBP)

Arrival

Time 2026-05-07 20:31
Airport Bucharest Henri Coandă International Airport (LROP)
Time Latitude Longitude Altitude Speed Heading
2026-05-07 18:58 47.43592 19.26349 474 ft 0 kts 221°
2026-05-07 19:15 47.43602 19.26361 475 ft 2 kts 221°
2026-05-07 19:15 47.43613 19.26376 475 ft 2 kts 236°
2026-05-07 19:15 47.43618 19.26397 475 ft 2 kts 264°
2026-05-07 19:15 47.43617 19.26419 475 ft 2 kts 290°
2026-05-07 19:16 47.43612 19.26433 475 ft 0 kts 308°
2026-05-07 19:16 47.43607 19.26441 475 ft 0 kts 311°
2026-05-07 19:20 47.43608 19.26439 474 ft 0 kts 311°
2026-05-07 19:20 47.43619 19.26420 474 ft 4 kts 311°
2026-05-07 19:20 47.43655 19.26361 474 ft 10 kts 311°
2026-05-07 19:20 47.43679 19.26250 475 ft 11 kts 268°
2026-05-07 19:21 47.43675 19.26126 475 ft 12 kts 267°
2026-05-07 19:21 47.43705 19.26014 475 ft 12 kts 310°
2026-05-07 19:21 47.43730 19.25909 476 ft 11 kts 240°
2026-05-07 19:21 47.43665 19.25819 474 ft 13 kts 223°
2026-05-07 19:22 47.43591 19.25721 473 ft 15 kts 222°
2026-05-07 19:22 47.43504 19.25602 468 ft 18 kts 222°
2026-05-07 19:22 47.43407 19.25473 466 ft 19 kts 222°
2026-05-07 19:22 47.43304 19.25334 461 ft 20 kts 222°
2026-05-07 19:23 47.43193 19.25186 456 ft 22 kts 221°
2026-05-07 19:23 47.43147 19.25124 453 ft 0 kts 223°
2026-05-07 19:23 47.43137 19.25111 453 ft 4 kts 223°
2026-05-07 19:23 47.43105 19.25064 451 ft 8 kts 231°
2026-05-07 19:24 47.43087 19.24963 447 ft 12 kts 289°
2026-05-07 19:24 47.43155 19.24848 445 ft 21 kts 312°
2026-05-07 19:24 47.43435 19.24394 433 ft 98 kts 313°
2026-05-07 19:24 47.44047 19.23405 444 ft 158 kts 313°
2026-05-07 19:25 47.44833 19.22113 853 ft 174 kts 310°
2026-05-07 19:25 47.45632 19.20803 1636 ft 173 kts 310°
2026-05-07 19:25 47.46426 19.19516 2401 ft 173 kts 310°
2026-05-07 19:25 47.47247 19.18154 2955 ft 183 kts 309°
2026-05-07 19:26 47.48121 19.16746 3521 ft 194 kts 313°
2026-05-07 19:26 47.49165 19.15378 3974 ft 212 kts 319°
2026-05-07 19:26 47.50383 19.13922 4374 ft 236 kts 319°
2026-05-07 19:26 47.51690 19.12367 4906 ft 254 kts 319°
2026-05-07 19:27 47.53104 19.10675 5587 ft 266 kts 319°
2026-05-07 19:27 47.54536 19.08951 6392 ft 270 kts 319°
2026-05-07 19:27 47.55985 19.07199 7264 ft 273 kts 319°
2026-05-07 19:27 47.57457 19.05416 8121 ft 277 kts 319°
2026-05-07 19:28 47.58951 19.03600 8934 ft 282 kts 319°
2026-05-07 19:28 47.60460 19.01763 9727 ft 287 kts 319°
2026-05-07 19:28 47.62028 18.99910 10472 ft 294 kts 324°
2026-05-07 19:28 47.63946 18.98691 10920 ft 315 kts 348°
2026-05-07 19:29 47.66185 18.98852 11340 ft 335 kts 17°
2026-05-07 19:29 47.68226 19.00625 11750 ft 353 kts 45°
2026-05-07 19:29 47.69543 19.03716 12309 ft 361 kts 73°
2026-05-07 19:29 47.69777 19.07348 13011 ft 361 kts 101°
2026-05-07 19:30 47.68924 19.10807 13771 ft 357 kts 123°
2026-05-07 19:30 47.67565 19.13841 14461 ft 360 kts 128°
2026-05-07 19:30 47.66107 19.16913 15144 ft 365 kts 128°
2026-05-07 19:30 47.64695 19.20014 15848 ft 368 kts 127°
2026-05-07 19:31 47.63302 19.23212 16533 ft 372 kts 126°
2026-05-07 19:31 47.61939 19.26442 17162 ft 376 kts 126°
2026-05-07 19:31 47.60563 19.29772 17812 ft 379 kts 126°
2026-05-07 19:31 47.59206 19.33094 18437 ft 382 kts 126°
2026-05-07 19:32 47.57838 19.36461 19069 ft 385 kts 126°
2026-05-07 19:32 47.56459 19.39860 19671 ft 388 kts 125°
2026-05-07 19:32 47.55083 19.43259 20245 ft 391 kts 125°
2026-05-07 19:32 47.53672 19.46753 20824 ft 395 kts 125°
2026-05-07 19:33 47.52266 19.50226 21384 ft 398 kts 125°
2026-05-07 19:33 47.50851 19.53724 21937 ft 401 kts 125°
2026-05-07 19:33 47.49413 19.57274 22493 ft 404 kts 125°
2026-05-07 19:33 47.47974 19.60823 23019 ft 408 kts 126°
2026-05-07 19:34 47.46502 19.64450 23546 ft 411 kts 126°
2026-05-07 19:34 47.45033 19.68072 24051 ft 415 kts 126°
2026-05-07 19:34 47.43565 19.71695 24565 ft 417 kts 126°
2026-05-07 19:34 47.42075 19.75370 25057 ft 420 kts 126°
2026-05-07 19:35 47.40559 19.79092 25517 ft 424 kts 126°
2026-05-07 19:35 47.39043 19.82808 25971 ft 427 kts 126°
2026-05-07 19:35 47.37519 19.86535 26412 ft 430 kts 126°
2026-05-07 19:35 47.35962 19.90336 26847 ft 433 kts 127°
2026-05-07 19:36 47.34405 19.94131 27277 ft 435 kts 127°
2026-05-07 19:36 47.32851 19.97914 27669 ft 438 kts 127°
2026-05-07 19:36 47.31257 20.01787 28048 ft 441 kts 127°
2026-05-07 19:36 47.29677 20.05619 28416 ft 444 kts 126°
2026-05-07 19:37 47.28086 20.09479 28781 ft 446 kts 126°
2026-05-07 19:37 47.26464 20.13410 29135 ft 448 kts 126°
2026-05-07 19:37 47.24855 20.17304 29461 ft 450 kts 126°
2026-05-07 19:37 47.23230 20.21228 29787 ft 452 kts 126°
2026-05-07 19:38 47.21593 20.25177 30138 ft 453 kts 126°
2026-05-07 19:38 47.19953 20.29132 30549 ft 451 kts 126°
2026-05-07 19:38 47.18343 20.33004 30938 ft 450 kts 126°
2026-05-07 19:38 47.16707 20.36932 31306 ft 449 kts 126°
2026-05-07 19:39 47.15076 20.40840 31659 ft 448 kts 126°
2026-05-07 19:39 47.13457 20.44718 32006 ft 448 kts 126°
2026-05-07 19:39 47.11830 20.48606 32350 ft 447 kts 126°
2026-05-07 19:39 47.10224 20.52436 32667 ft 446 kts 126°
2026-05-07 19:40 47.08516 20.56230 32978 ft 442 kts 133°
2026-05-07 19:40 47.06499 20.59546 33227 ft 438 kts 139°
2026-05-07 19:40 47.04356 20.62726 33365 ft 441 kts 139°
2026-05-07 19:40 47.02174 20.65917 33540 ft 444 kts 140°
2026-05-07 19:41 47.00010 20.69105 33799 ft 444 kts 140°
2026-05-07 19:41 46.97857 20.72292 34093 ft 443 kts 139°
2026-05-07 19:41 46.95681 20.75519 34381 ft 442 kts 139°
2026-05-07 19:41 46.93543 20.78693 34634 ft 441 kts 139°
2026-05-07 19:42 46.91395 20.81880 34856 ft 441 kts 139°
2026-05-07 19:42 46.89253 20.85053 35069 ft 440 kts 139°
2026-05-07 19:42 46.87107 20.88212 35293 ft 440 kts 140°
2026-05-07 19:42 46.84974 20.91344 35498 ft 440 kts 139°
2026-05-07 19:43 46.82811 20.94522 35691 ft 440 kts 139°
2026-05-07 19:43 46.80663 20.97682 35903 ft 439 kts 139°
2026-05-07 19:43 46.78530 21.00818 36107 ft 439 kts 139°
2026-05-07 19:43 46.76387 21.03967 36303 ft 439 kts 139°
2026-05-07 19:44 46.74257 21.07095 36515 ft 438 kts 139°
2026-05-07 19:44 46.72094 21.10269 36759 ft 438 kts 139°
2026-05-07 19:44 46.69957 21.13404 36998 ft 438 kts 139°
2026-05-07 19:44 46.67829 21.16520 37218 ft 438 kts 139°
2026-05-07 19:45 46.65678 21.19665 37377 ft 439 kts 139°
2026-05-07 19:45 46.63530 21.22802 37508 ft 441 kts 139°
2026-05-07 19:45 46.61356 21.25973 37638 ft 442 kts 139°
2026-05-07 19:45 46.59209 21.29102 37760 ft 443 kts 139°
2026-05-07 19:46 46.57021 21.32288 37888 ft 444 kts 139°
2026-05-07 19:46 46.54841 21.35456 38014 ft 445 kts 139°
2026-05-07 19:46 46.52665 21.38617 38133 ft 446 kts 139°
2026-05-07 19:46 46.50478 21.41789 38234 ft 447 kts 139°
2026-05-07 19:47 46.48273 21.44984 38337 ft 448 kts 139°
2026-05-07 19:47 46.46069 21.48172 38440 ft 449 kts 139°
2026-05-07 19:47 46.41646 21.54560 38623 ft 450 kts 139°
2026-05-07 19:48 46.37228 21.60924 38803 ft 452 kts 139°
2026-05-07 19:48 46.32764 21.67347 38961 ft 453 kts 139°
2026-05-07 19:49 46.28320 21.73750 38991 ft 454 kts 139°
2026-05-07 19:49 46.23854 21.80155 38997 ft 454 kts 139°
2026-05-07 19:50 46.19352 21.86582 38998 ft 455 kts 139°
2026-05-07 19:50 46.14881 21.92947 38999 ft 455 kts 139°
2026-05-07 19:51 46.10393 21.99318 38999 ft 455 kts 139°
2026-05-07 19:51 46.05886 22.05701 38998 ft 455 kts 139°
2026-05-07 19:52 46.01387 22.12060 38998 ft 456 kts 139°
2026-05-07 19:52 45.96865 22.18435 39002 ft 457 kts 139°
2026-05-07 19:53 45.92326 22.24817 39002 ft 457 kts 139°
2026-05-07 19:53 45.87805 22.31147 39008 ft 457 kts 139°
2026-05-07 19:54 45.83231 22.37512 39016 ft 457 kts 139°
2026-05-07 19:54 45.78710 22.43807 39030 ft 458 kts 139°
2026-05-07 19:55 45.74146 22.50161 39040 ft 458 kts 139°
2026-05-07 19:55 45.69589 22.56490 39046 ft 459 kts 139°
2026-05-07 19:56 45.65017 22.62830 39042 ft 459 kts 139°
2026-05-07 19:56 45.60436 22.69184 39041 ft 459 kts 140°
2026-05-07 19:57 45.55858 22.75529 39038 ft 459 kts 140°
2026-05-07 19:57 45.51301 22.81814 39044 ft 460 kts 140°
2026-05-07 19:58 45.46692 22.88144 39041 ft 460 kts 140°
2026-05-07 19:58 45.42081 22.94457 39049 ft 461 kts 140°
2026-05-07 19:59 45.37487 23.00735 39053 ft 462 kts 140°
2026-05-07 19:59 45.32849 23.07060 39053 ft 462 kts 140°
2026-05-07 20:00 45.28230 23.13348 39061 ft 462 kts 140°
2026-05-07 20:00 45.23611 23.19625 39064 ft 462 kts 140°
2026-05-07 20:01 45.18968 23.25911 39043 ft 461 kts 140°
2026-05-07 20:01 45.14532 23.32398 39043 ft 465 kts 132°
2026-05-07 20:02 45.10887 23.39952 39043 ft 470 kts 121°
2026-05-07 20:02 45.08262 23.48485 39037 ft 474 kts 109°
2026-05-07 20:03 45.06522 23.57447 39047 ft 474 kts 105°
2026-05-07 20:03 45.05701 23.61938 38844 ft 477 kts 105°
2026-05-07 20:03 45.04864 23.66470 38380 ft 477 kts 107°
2026-05-07 20:04 45.04023 23.70991 37756 ft 475 kts 107°
2026-05-07 20:04 45.03185 23.75459 36918 ft 477 kts 107°
2026-05-07 20:04 45.02334 23.79954 36231 ft 475 kts 108°
2026-05-07 20:04 45.01483 23.84424 35637 ft 475 kts 108°
2026-05-07 20:05 45.00618 23.88945 35037 ft 474 kts 108°
2026-05-07 20:05 44.99765 23.93389 34390 ft 473 kts 108°
2026-05-07 20:05 44.98906 23.97846 33675 ft 470 kts 108°
2026-05-07 20:05 44.98059 24.02227 33002 ft 467 kts 108°
2026-05-07 20:06 44.97202 24.06646 32313 ft 465 kts 108°
2026-05-07 20:06 44.96349 24.11036 31628 ft 462 kts 108°
2026-05-07 20:06 44.95513 24.15329 30948 ft 459 kts 108°
2026-05-07 20:06 44.94668 24.19665 30248 ft 458 kts 108°
2026-05-07 20:07 44.93826 24.23978 29532 ft 457 kts 108°
2026-05-07 20:07 44.92984 24.28286 28961 ft 454 kts 108°
2026-05-07 20:07 44.92149 24.32544 28501 ft 451 kts 107°
2026-05-07 20:07 44.91317 24.36774 28028 ft 448 kts 107°
2026-05-07 20:08 44.90490 24.40978 27558 ft 444 kts 107°
2026-05-07 20:08 44.89677 24.45101 27093 ft 440 kts 108°
2026-05-07 20:08 44.88847 24.49225 26626 ft 437 kts 107°
2026-05-07 20:08 44.88019 24.53328 26156 ft 433 kts 107°
2026-05-07 20:09 44.87203 24.57394 25680 ft 429 kts 107°
2026-05-07 20:09 44.86398 24.61420 25207 ft 426 kts 107°
2026-05-07 20:09 44.85609 24.65364 24750 ft 422 kts 108°
2026-05-07 20:10 44.84032 24.73276 23795 ft 415 kts 108°
2026-05-07 20:10 44.83255 24.77158 23326 ft 412 kts 107°
2026-05-07 20:10 44.82481 24.81017 22875 ft 409 kts 107°
2026-05-07 20:10 44.81716 24.84833 22416 ft 406 kts 108°
2026-05-07 20:11 44.80949 24.88642 21950 ft 403 kts 108°
2026-05-07 20:11 44.80189 24.92408 21481 ft 401 kts 108°
2026-05-07 20:11 44.79427 24.96169 21013 ft 399 kts 108°
2026-05-07 20:11 44.78676 24.99883 20554 ft 397 kts 108°
2026-05-07 20:12 44.77927 25.03573 20099 ft 394 kts 107°
2026-05-07 20:12 44.77172 25.07281 19637 ft 392 kts 108°
2026-05-07 20:12 44.76431 25.10921 19175 ft 390 kts 107°
2026-05-07 20:12 44.75685 25.14573 18715 ft 387 kts 107°
2026-05-07 20:13 44.75040 25.18230 18254 ft 386 kts 104°
2026-05-07 20:13 44.74474 25.21917 17795 ft 384 kts 103°
2026-05-07 20:13 44.73927 25.25563 17340 ft 382 kts 103°
2026-05-07 20:13 44.73386 25.29152 16892 ft 380 kts 103°
2026-05-07 20:14 44.72838 25.32773 16442 ft 378 kts 103°
2026-05-07 20:14 44.72293 25.36349 15997 ft 375 kts 103°
2026-05-07 20:14 44.71746 25.39921 15551 ft 372 kts 103°
2026-05-07 20:14 44.71344 25.43496 15104 ft 371 kts 95°
2026-05-07 20:15 44.71285 25.47098 14661 ft 369 kts 88°
2026-05-07 20:15 44.71505 25.50572 14235 ft 366 kts 84°
2026-05-07 20:15 44.71804 25.54106 13793 ft 363 kts 83°
2026-05-07 20:15 44.72109 25.57620 13352 ft 361 kts 83°
2026-05-07 20:16 44.72401 25.61066 12927 ft 358 kts 83°
2026-05-07 20:16 44.72682 25.64489 12812 ft 350 kts 84°
2026-05-07 20:16 44.72954 25.67881 12729 ft 345 kts 84°
2026-05-07 20:16 44.73216 25.71205 12644 ft 341 kts 85°
2026-05-07 20:17 44.73465 25.74505 12538 ft 335 kts 87°
2026-05-07 20:17 44.73161 25.77642 12343 ft 320 kts 115°
2026-05-07 20:17 44.71878 25.80058 12096 ft 306 kts 144°
2026-05-07 20:17 44.69998 25.81177 11893 ft 294 kts 174°
2026-05-07 20:18 44.67979 25.81081 11649 ft 286 kts 186°
2026-05-07 20:18 44.66023 25.80717 11387 ft 281 kts 197°
2026-05-07 20:18 44.64400 25.79304 11147 ft 275 kts 228°
2026-05-07 20:18 44.63476 25.77026 10830 ft 275 kts 254°
2026-05-07 20:19 44.63248 25.74369 10432 ft 276 kts 265°
2026-05-07 20:19 44.63129 25.71678 10120 ft 273 kts 264°
2026-05-07 20:19 44.62975 25.69068 9844 ft 271 kts 263°
2026-05-07 20:19 44.62789 25.66436 9528 ft 268 kts 262°
2026-05-07 20:20 44.62590 25.63851 9230 ft 265 kts 262°
2026-05-07 20:20 44.62389 25.61303 8940 ft 262 kts 262°
2026-05-07 20:20 44.62186 25.58763 8657 ft 259 kts 262°
2026-05-07 20:20 44.61989 25.56303 8389 ft 255 kts 262°
2026-05-07 20:21 44.61791 25.53857 8175 ft 249 kts 262°
2026-05-07 20:21 44.61598 25.51471 7892 ft 246 kts 262°
2026-05-07 20:21 44.61359 25.49156 7693 ft 239 kts 251°
2026-05-07 20:21 44.60449 25.47272 7403 ft 234 kts 217°
2026-05-07 20:22 44.58970 25.46396 7109 ft 234 kts 187°
2026-05-07 20:22 44.57364 25.46525 6845 ft 234 kts 175°
2026-05-07 20:22 44.55754 25.46818 6584 ft 233 kts 175°
2026-05-07 20:22 44.54154 25.47122 6336 ft 232 kts 169°
2026-05-07 20:23 44.52751 25.48201 6053 ft 237 kts 134°
2026-05-07 20:23 44.52002 25.50255 5786 ft 240 kts 100°
2026-05-07 20:23 44.52056 25.52566 5555 ft 240 kts 84°
2026-05-07 20:23 44.52284 25.54866 5318 ft 239 kts 84°
2026-05-07 20:24 44.52497 25.57167 5074 ft 238 kts 85°
2026-05-07 20:24 44.52696 25.59492 4812 ft 239 kts 86°
2026-05-07 20:24 44.52880 25.61780 4586 ft 237 kts 85°
2026-05-07 20:24 44.53063 25.64045 4339 ft 236 kts 86°
2026-05-07 20:25 44.53244 25.66340 4092 ft 235 kts 86°
2026-05-07 20:25 44.53424 25.68600 3852 ft 235 kts 85°
2026-05-07 20:25 44.53605 25.70875 3601 ft 235 kts 85°
2026-05-07 20:25 44.53785 25.73137 3351 ft 235 kts 85°
2026-05-07 20:26 44.53966 25.75430 3107 ft 234 kts 86°
2026-05-07 20:26 44.54142 25.77672 2879 ft 232 kts 86°
2026-05-07 20:26 44.54326 25.79914 2646 ft 229 kts 84°
2026-05-07 20:26 44.54538 25.82096 2503 ft 228 kts 84°
2026-05-07 20:27 44.54738 25.84315 2499 ft 229 kts 85°
2026-05-07 20:27 44.54913 25.86511 2489 ft 224 kts 86°
2026-05-07 20:27 44.55068 25.88616 2477 ft 211 kts 86°
2026-05-07 20:27 44.55210 25.90613 2475 ft 202 kts 86°
2026-05-07 20:28 44.55350 25.92553 2233 ft 197 kts 86°
2026-05-07 20:28 44.55484 25.94407 1969 ft 187 kts 86°
2026-05-07 20:28 44.55614 25.96172 1743 ft 174 kts 86°
2026-05-07 20:28 44.55733 25.97792 1529 ft 162 kts 85°
2026-05-07 20:29 44.55846 25.99323 1343 ft 152 kts 85°
2026-05-07 20:29 44.55952 26.00746 1161 ft 144 kts 85°
2026-05-07 20:29 44.56054 26.02132 1009 ft 142 kts 85°
2026-05-07 20:29 44.56156 26.03506 851 ft 141 kts 84°
2026-05-07 20:30 44.56258 26.04857 688 ft 140 kts 84°
2026-05-07 20:30 44.56358 26.06216 519 ft 139 kts 84°
2026-05-07 20:30 44.56455 26.07550 371 ft 138 kts 84°
2026-05-07 20:30 44.56551 26.08843 304 ft 121 kts 78°
2026-05-07 20:31 44.56624 26.09773 306 ft 72 kts 81°
2026-05-07 20:31 44.56659 26.10232 304 ft 23 kts 84°
2026-05-07 20:31 44.56676 26.10423 304 ft 18 kts 84°
2026-05-07 20:31 44.56688 26.10602 304 ft 18 kts 84°
2026-05-07 20:32 44.56731 26.10759 303 ft 17 kts 21°
2026-05-07 20:32 44.56830 26.10752 304 ft 0 kts 354°
2026-05-07 20:33 44.56834 26.10751 303 ft 1 kts 354°
2026-05-07 20:33 44.56849 26.10749 304 ft 3 kts 354°
2026-05-07 20:33 44.56886 26.10744 304 ft 8 kts 353°
2026-05-07 20:34 44.56975 26.10723 306 ft 16 kts 339°
2026-05-07 20:34 44.57050 26.10604 307 ft 16 kts 300°
2026-05-07 20:34 44.57067 26.10451 307 ft 16 kts 263°
2026-05-07 20:34 44.57053 26.10291 308 ft 16 kts 263°
2026-05-07 20:35 44.57041 26.10133 308 ft 16 kts 264°
2026-05-07 20:35 44.57031 26.09974 307 ft 16 kts 264°
2026-05-07 20:35 44.57018 26.09821 310 ft 15 kts 262°
2026-05-07 20:35 44.57006 26.09672 310 ft 15 kts 264°
2026-05-07 20:36 44.56994 26.09520 310 ft 15 kts 264°
2026-05-07 20:36 44.56983 26.09366 310 ft 16 kts 264°
2026-05-07 20:36 44.56970 26.09198 307 ft 18 kts 264°
2026-05-07 20:36 44.56956 26.09022 307 ft 18 kts 263°
2026-05-07 20:37 44.56943 26.08844 306 ft 18 kts 264°
2026-05-07 20:37 44.56914 26.08715 306 ft 9 kts 186°
2026-05-07 20:37 44.56880 26.08722 306 ft 0 kts 171°